Weather History for Lima, OH

Change the Weather History Date:

Friday, December 13, 2013

  Actual Average (KFDY) Record (KFDY)
Temperature  
Mean Temperature 24 °F -  
Max Temperature 30 °F 37 °F 60 °F (1975)
Min Temperature 18 °F 25 °F -7 °F (1962)
Degree Days  
Heating Degree Days 41    
Moisture  
Dew Point 15 °F    
Average Humidity 65    
Maximum Humidity 88    
Minimum Humidity 52    
Precipitation  
Precipitation 0.04 in - - ()
Sea Level Pressure  
Sea Level Pressure 30.22 in    
Wind  
Wind Speed 8 mph (South)    
Max Wind Speed 12 mph    
Max Gust Speed -    
Visibility 8 miles    
Events Snow    
Averages and records for this station are not official NWS values.
T = Trace of Precipitation, MM = Missing Value Source: NWS Daily Summary

Daily Weather History Graph

Daily Weather History Graph

Search for Another Location

Airport:

Trip Planner

Search our weather history database for the weather conditions in past years. The results will help you decide how hot, cold, wet, or windy it might be!

Date:

Astronomy

Dec. 13, 2013 Rise Set
Actual Time 7:51 AM EST 5:09 PM EST
Civil Twilight 7:20 AM EST 5:40 PM EST
Nautical Twilight 6:46 AM EST 6:14 PM EST
Astronomical Twilight 6:13 AM EST 6:47 PM EST
Moon 2:52 PM EST (12/13) 4:12 AM EST (12/13)
Length of Visible Light 10h 19m
Length of Day
9h 17m
Waxing Gibbous, 88% of the Moon is Illuminated
Dec 13
Waxing Gibbous
Dec 17
Full
Dec 25
Last Quarter
Jan 1
New
Jan 7
First Quarter

Hourly Weather History & Observations

Time (EST) Temp. Windchill Dew Point Humidity Pressure Visibility Wind Dir Wind Speed Gust Speed Precip Events Conditions
12:53 AM 18.0 °F 5.4 °F 3.0 °F 52% 30.29 in 10.0 mi SW 11.5 mph - N/A   Clear
1:53 AM 18.0 °F 6.9 °F 3.0 °F 52% 30.28 in 10.0 mi SW 9.2 mph - N/A   Clear
2:53 AM 18.0 °F 6.1 °F 3.9 °F 54% 30.27 in 10.0 mi SW 10.4 mph - N/A   Clear
3:53 AM 18.0 °F 6.9 °F 3.9 °F 54% 30.27 in 10.0 mi SSW 9.2 mph - N/A   Scattered Clouds
4:53 AM 19.0 °F 9.0 °F 5.0 °F 54% 30.24 in 10.0 mi SSW 8.1 mph - N/A   Overcast
5:53 AM 18.0 °F 9.8 °F 6.1 °F 60% 30.24 in 10.0 mi SSW 5.8 mph - N/A   Clear
6:53 AM 19.9 °F 10.1 °F 8.1 °F 60% 30.24 in 10.0 mi SSW 8.1 mph - N/A   Mostly Cloudy
7:53 AM 19.0 °F 9.0 °F 8.1 °F 62% 30.25 in 10.0 mi South 8.1 mph - N/A   Clear
8:53 AM 21.0 °F 12.4 °F 10.0 °F 63% 30.26 in 10.0 mi SW 6.9 mph - N/A   Mostly Cloudy
9:53 AM 24.1 °F 13.7 °F 10.9 °F 57% 30.27 in 10.0 mi WSW 10.4 mph - N/A   Clear
10:53 AM 26.1 °F 17.6 °F 12.0 °F 55% 30.27 in 10.0 mi WSW 8.1 mph - N/A   Clear
11:53 AM 28.0 °F 21.7 °F 12.9 °F 53% 30.25 in 10.0 mi WSW 5.8 mph - N/A   Clear
12:53 PM 28.0 °F 22.8 °F 15.1 °F 58% 30.22 in 10.0 mi South 4.6 mph - N/A   Clear
1:53 PM 28.9 °F 21.1 °F 16.0 °F 58% 30.21 in 10.0 mi South 8.1 mph - N/A   Clear
2:53 PM 30.0 °F 21.7 °F 17.1 °F 59% 30.19 in 10.0 mi South 9.2 mph - N/A   Clear
3:53 PM 30.9 °F 26.2 °F 17.1 °F 57% 30.20 in 10.0 mi South 4.6 mph - N/A   Clear
4:53 PM 30.0 °F 23.2 °F 19.0 °F 64% 30.19 in 10.0 mi South 6.9 mph - N/A   Clear
5:53 PM 30.0 °F 25.2 °F 19.0 °F 64% 30.20 in 10.0 mi South 4.6 mph - N/A   Partly Cloudy
6:53 PM 28.9 °F 23.9 °F 18.0 °F 64% 30.21 in 10.0 mi SE 4.6 mph - N/A   Clear
7:53 PM 28.9 °F 22.8 °F 19.0 °F 67% 30.23 in 10.0 mi ESE 5.8 mph - N/A   Mostly Cloudy
8:53 PM 28.9 °F 25.2 °F 19.9 °F 69% 30.22 in 10.0 mi ESE 3.5 mph - N/A   Overcast
9:53 PM 30.0 °F 26.5 °F 19.9 °F 66% 30.21 in 10.0 mi ESE 3.5 mph - N/A   Overcast
10:30 PM 30.2 °F 25.4 °F 21.2 °F 69% 30.16 in 4.0 mi South 4.6 mph - 0.00 in Snow Light Snow
10:42 PM 30.2 °F 25.4 °F 23.0 °F 75% 30.15 in 2.0 mi South 4.6 mph - 0.00 in Snow Light Snow
10:53 PM 28.9 °F 23.9 °F 24.1 °F 82% 30.19 in 2.0 mi South 4.6 mph - 0.00 in Snow Light Snow
11:18 PM 30.2 °F 24.3 °F 26.6 °F 86% 30.16 in 1.5 mi South 5.8 mph - 0.01 in Snow Light Snow
11:26 PM 30.2 °F 25.4 °F 26.6 °F 86% 30.16 in 1.2 mi SSW 4.6 mph - 0.01 in Snow Light Snow
11:48 PM 30.2 °F - 26.6 °F 86% 30.16 in 0.8 mi Calm Calm - 0.03 in Snow Light Snow
11:53 PM 30.0 °F - 27.0 °F 88% 30.20 in 0.8 mi Calm Calm - 0.04 in Snow Light Snow